Weather in Bitung

Indonesia     1°27′01″N   125°11′55″E
temp.,
°C
wind,
m/s
gust,
m/s
humid.,
%
clouds,
%
prec.,
mm/h
press.,
hPa
HPBL,
m
11 may, tue
tue1123:00+27sw5682100 0.2 1010525
02:00+27sw5684100 2.1 1008409
05:00+27ssw6783100 2.3 1009517
08:00+28ssw7880100 3.0 1010610
11:00+28ssw7877100 0.1 1009812
14:00+28ssw897797 0.2 1007778
17:00+28ssw687981 0.2 1007699
20:00+27ssw678097 0.3 1009675
12 may, wed
wed1223:00+27ssw6781100 0.0 1009629
02:00+27ssw568294 0.0 1008555
05:00+27ssw568361 0.0 1008505
08:00+28ssw5678100 0.0 1010744
11:00+29s677577 0.0 1008814
14:00+29s787513 0.0 1006829
17:00+28s677712 0.0 1006846
20:00+28s56817 0.1 1008655
13 may, thu
thu1323:00+27ssw5683100 1.8 1008492
02:00+27ssw568355 3.2 1007464
05:00+27ssw568353 0.0 1007538
08:00+28s677922 0.3 1009817
11:00+29s677514 0.2 1008862
14:00+29s77735 0.3 1005861
17:00+28s6777100 0.0 1006691
20:00+28ssw5680100 0.1 1008645
14 may, fri
fri1423:00+27ssw5682100 0.0 1007530
02:00+27ssw568315 0.0 1006503
05:00+27ssw56839 0.0 1006606
08:00+28s677999 0.0 1008790
11:00+29s677491 0.0 1007871
14:00+29s777423 0.0 1005800
17:00+28s67777 0.0 1005795
20:00+28ssw678195 0.0 1007606
15 may, sat
sat1523:00+27ssw56838 0.0 1008579
02:00+27ssw458357 0.3 1006457
05:00+27ssw45829 0.4 1007542
08:00+28s557763 0.4 1008743
11:00+29s557313 0.0 1007765
14:00+29s667330 0.0 1005738
17:00+28s55765 0.0 1005689
20:00+28ssw558087 0.9 1007528